When you browse on this site, cookies collect data to enhance your experience and personalize the content and advertising you see.
Visit our Privacy Policy to learn more. By continuing to use the site, you agree to this use of cookies and data.
  • In Latvia
  • List of Countries
  • For 7 days
  • Water Temperature
  • Satellite Maps
  • Weather Map
  • Weather Widgets
  • user-avatar
    Login

    Hourly Weather Aglona

    Today, 20 July, Saturday

    Time Temperature Precipitation Wind Pressure Humidity
    00:00 +12°C° 0 mm 2 mps 745 mmHg 87%
    01:00 +12°C° 0 mm 2 mps 745 mmHg 90%
    02:00 +10°C° 0 mm 2 mps 745 mmHg 93%
    03:00 +10°C° 0 mm 2 mps 746 mmHg 93%
    04:00 +10°C° 0 mm 2 mps 746 mmHg 93%
    05:00 +10°C° 0 mm 2 mps 746 mmHg 92%
    06:00 +13°C° 0 mm 2 mps 746 mmHg 85%
    07:00 +15°C° 0 mm 2 mps 746 mmHg 77%
    08:00 +17°C° 0 mm 2 mps 746 mmHg 70%
    09:00 +19°C° 0 mm 2 mps 747 mmHg 63%
    10:00 +21°C° 0 mm 2 mps 747 mmHg 57%
    11:00 +22°C° 0 mm 3 mps 747 mmHg 50%
    12:00 +24°C° 0 mm 3 mps 747 mmHg 48%
    13:00 +25°C° 0 mm 2 mps 747 mmHg 46%
    14:00 +25°C° 0 mm 2 mps 747 mmHg 44%
    15:00 +25°C° 0 mm 2 mps 747 mmHg 46%
    16:00 +25°C° 0 mm 2 mps 747 mmHg 48%
    17:00 +25°C° 0 mm 2 mps 747 mmHg 50%
    18:00 +23°C° 0 mm 2 mps 747 mmHg 58%
    19:00 +20°C° 0 mm 2 mps 747 mmHg 67%
    20:00 +19°C° 0 mm 1 mps 747 mmHg 76%
    21:00 +18°C° 0 mm 1 mps 748 mmHg 79%
    22:00 +16°C° 0 mm 1 mps 748 mmHg 82%
    23:00 +15°C° 0 mm 1 mps 748 mmHg 86%

    Tomorrow, 21 July, Sunday

    Time Temperature Precipitation Wind Pressure Humidity
    00:00 +14°C° 0 mm 1 mps 748 mmHg 87%
    01:00 +14°C° 0 mm 1 mps 748 mmHg 88%
    02:00 +12°C° 0 mm 0 mps 748 mmHg 89%
    03:00 +12°C° 0 mm 0 mps 749 mmHg 90%
    04:00 +12°C° 0 mm 0 mps 749 mmHg 90%
    05:00 +12°C° 0 mm 0 mps 749 mmHg 90%
    06:00 +15°C° 0 mm 0 mps 749 mmHg 82%
    07:00 +17°C° 0 mm 0 mps 749 mmHg 75%
    08:00 +20°C° 0 mm 0 mps 749 mmHg 67%
    09:00 +21°C° 0 mm 0 mps 749 mmHg 61%
    10:00 +23°C° 0 mm 0 mps 749 mmHg 55%
    11:00 +25°C° 0 mm 0 mps 749 mmHg 49%
    12:00 +25°C° 0 mm 0 mps 748 mmHg 47%
    13:00 +27°C° 0 mm 1 mps 748 mmHg 45%
    14:00 +28°C° 0 mm 1 mps 748 mmHg 43%
    15:00 +27°C° 0 mm 1 mps 748 mmHg 45%
    16:00 +27°C° 0 mm 1 mps 747 mmHg 48%
    17:00 +26°C° 0 mm 1 mps 747 mmHg 50%
    18:00 +24°C° 0 mm 1 mps 747 mmHg 60%
    19:00 +22°C° 0 mm 1 mps 747 mmHg 69%
    20:00 +21°C° 0 mm 1 mps 747 mmHg 78%
    21:00 +20°C° 0 mm 1 mps 747 mmHg 79%
    22:00 +19°C° 0 mm 1 mps 747 mmHg 80%
    23:00 +17°C° 0 mm 2 mps 747 mmHg 81%

    Day after tomorrow, 22 July, Monday

    Time Temperature Precipitation Wind Pressure Humidity
    00:00 +17°C° 0 mm 2 mps 746 mmHg 81%
    01:00 +17°C° 0 mm 2 mps 746 mmHg 81%
    02:00 +16°C° 0 mm 2 mps 746 mmHg 81%
    03:00 +16°C° 0.7 mm 1 mps 746 mmHg 86%
    04:00 +16°C° 0.7 mm 1 mps 746 mmHg 91%
    05:00 +16°C° 0.7 mm 1 mps 746 mmHg 96%
    06:00 +16°C° 0.5 mm 1 mps 745 mmHg 96%
    07:00 +16°C° 0.5 mm 2 mps 745 mmHg 97%
    08:00 +16°C° 0.5 mm 2 mps 745 mmHg 98%
    09:00 +17°C° 0.4 mm 2 mps 745 mmHg 97%
    10:00 +17°C° 0.4 mm 2 mps 745 mmHg 96%
    11:00 +17°C° 0.4 mm 2 mps 745 mmHg 96%
    12:00 +18°C° 0.3 mm 2 mps 745 mmHg 95%
    13:00 +19°C° 0.3 mm 1 mps 745 mmHg 93%
    14:00 +20°C° 0.3 mm 1 mps 745 mmHg 92%
    15:00 +20°C° 0.4 mm 1 mps 745 mmHg 93%
    16:00 +19°C° 0.4 mm 1 mps 745 mmHg 93%
    17:00 +19°C° 0.4 mm 1 mps 745 mmHg 94%
    18:00 +19°C° 0.5 mm 1 mps 745 mmHg 95%
    19:00 +18°C° 0.5 mm 1 mps 745 mmHg 96%
    20:00 +18°C° 0.5 mm 1 mps 745 mmHg 97%
    21:00 +18°C° 0 mm 1 mps 745 mmHg 97%
    22:00 +16°C° 0 mm 1 mps 745 mmHg 97%
    23:00 +16°C° 0 mm 1 mps 745 mmHg 96%

    23 July, Tuesday

    Time Temperature Precipitation Wind Pressure Humidity
    00:00 +16°C° 0 mm 1 mps 745 mmHg 97%
    01:00 +15°C° 0 mm 1 mps 745 mmHg 97%
    02:00 +15°C° 0 mm 1 mps 745 mmHg 97%
    03:00 +14°C° 0 mm 2 mps 745 mmHg 97%
    04:00 +14°C° 0 mm 2 mps 745 mmHg 97%
    05:00 +14°C° 0 mm 2 mps 746 mmHg 97%
    06:00 +16°C° 0 mm 2 mps 746 mmHg 92%
    07:00 +17°C° 0 mm 2 mps 746 mmHg 87%
    08:00 +19°C° 0 mm 2 mps 746 mmHg 82%
    09:00 +20°C° 0 mm 3 mps 746 mmHg 72%
    10:00 +22°C° 0 mm 3 mps 746 mmHg 63%
    11:00 +24°C° 0 mm 3 mps 746 mmHg 53%
    12:00 +25°C° 0 mm 3 mps 746 mmHg 51%
    13:00 +25°C° 0 mm 3 mps 746 mmHg 50%
    14:00 +26°C° 0 mm 3 mps 746 mmHg 48%
    15:00 +26°C° 0 mm 3 mps 746 mmHg 49%
    16:00 +25°C° 0 mm 3 mps 745 mmHg 51%
    17:00 +25°C° 0 mm 3 mps 745 mmHg 52%
    18:00 +23°C° 0 mm 2 mps 745 mmHg 60%
    19:00 +21°C° 0 mm 2 mps 745 mmHg 67%
    20:00 +20°C° 0 mm 1 mps 745 mmHg 75%
    21:00 +19°C° 0 mm 1 mps 745 mmHg 77%
    22:00 +18°C° 0 mm 1 mps 746 mmHg 80%
    23:00 +16°C° 0 mm 1 mps 746 mmHg 83%

    24 July, Wednesday

    Time Temperature Precipitation Wind Pressure Humidity
    00:00 +15°C° 0 mm 1 mps 746 mmHg 85%
    01:00 +15°C° 0 mm 1 mps 746 mmHg 88%
    02:00 +14°C° 0 mm 1 mps 746 mmHg 90%
    03:00 +14°C° 0 mm 1 mps 746 mmHg 92%
    04:00 +14°C° 0 mm 1 mps 746 mmHg 93%
    05:00 +14°C° 0 mm 1 mps 746 mmHg 94%
    06:00 +16°C° 0 mm 1 mps 746 mmHg 87%
    07:00 +19°C° 0 mm 1 mps 746 mmHg 79%
    08:00 +21°C° 0 mm 1 mps 746 mmHg 72%
    09:00 +21°C° 0.3 mm 2 mps 746 mmHg 70%
    10:00 +23°C° 0.3 mm 2 mps 746 mmHg 69%
    11:00 +23°C° 0.3 mm 2 mps 746 mmHg 67%
    12:00 +23°C° 0.5 mm 2 mps 746 mmHg 70%
    13:00 +23°C° 0.5 mm 2 mps 746 mmHg 73%
    14:00 +23°C° 0.5 mm 2 mps 746 mmHg 76%
    15:00 +23°C° 0.4 mm 2 mps 746 mmHg 76%
    16:00 +23°C° 0.4 mm 2 mps 746 mmHg 77%
    17:00 +23°C° 0.4 mm 2 mps 746 mmHg 77%
    18:00 +21°C° 0.1 mm 2 mps 746 mmHg 80%
    19:00 +20°C° 0.1 mm 2 mps 746 mmHg 84%
    20:00 +19°C° 0.1 mm 2 mps 746 mmHg 87%
    21:00 +18°C° 0 mm 2 mps 746 mmHg 90%
    22:00 +17°C° 0 mm 2 mps 746 mmHg 93%
    23:00 +16°C° 0 mm 2 mps 746 mmHg 95%

    25 July, Thursday

    Time Temperature Precipitation Wind Pressure Humidity
    00:00 +15°C° 0 mm 2 mps 747 mmHg 96%
    01:00 +15°C° 0 mm 2 mps 747 mmHg 96%
    02:00 +14°C° 0 mm 2 mps 747 mmHg 97%
    03:00 +14°C° 0 mm 2 mps 747 mmHg 96%
    04:00 +14°C° 0 mm 2 mps 747 mmHg 95%
    05:00 +14°C° 0 mm 2 mps 747 mmHg 94%
    06:00 +15°C° 0 mm 2 mps 747 mmHg 91%
    07:00 +16°C° 0 mm 2 mps 747 mmHg 89%
    08:00 +17°C° 0 mm 2 mps 748 mmHg 86%
    09:00 +18°C° 0 mm 2 mps 748 mmHg 78%
    10:00 +20°C° 0 mm 3 mps 748 mmHg 70%
    11:00 +21°C° 0 mm 3 mps 748 mmHg 62%
    12:00 +22°C° 0 mm 3 mps 748 mmHg 57%
    13:00 +23°C° 0 mm 4 mps 748 mmHg 52%
    14:00 +23°C° 0 mm 4 mps 747 mmHg 47%
    15:00 +23°C° 0 mm 4 mps 748 mmHg 49%
    16:00 +23°C° 0 mm 4 mps 748 mmHg 50%
    17:00 +24°C° 0 mm 3 mps 748 mmHg 51%
    18:00 +21°C° 0 mm 3 mps 748 mmHg 59%
    19:00 +20°C° 0 mm 3 mps 748 mmHg 67%
    20:00 +18°C° 0 mm 2 mps 748 mmHg 75%
    21:00 +17°C° 0 mm 2 mps 748 mmHg 80%
    22:00 +16°C° 0 mm 2 mps 749 mmHg 85%
    23:00 +14°C° 0 mm 2 mps 749 mmHg 90%
    Show more